| time (UTC) | temp C | wind direction | speed KPH | gust KPH | rain 1hr cm | rain 24hr cm | rain mn cm | humidity % | barometer mb |
| 20260506050107 | 23 | 190 | 4.8 | 11.3 | 0.00 | 0.00 | 0.00 | 89 | 1008.1 |
| 20260506044555 | 23 | 194 | 6.4 | 11.3 | 0.00 | 0.00 | 0.00 | 89 | 1008.1 |
| 20260506044540 | 23 | 168 | 4.8 | 11.3 | 0.00 | 0.00 | 0.00 | 89 | 1008.1 |
| 20260506043057 | 23 | 180 | 6.4 | 12.9 | 0.00 | 0.00 | 0.00 | 89 | 1007.9 |
| 20260506041553 | 23 | 174 | 6.4 | 12.9 | 0.00 | 0.00 | 0.00 | 89 | 1007.7 |
| 20260506040053 | 23 | 153 | 6.4 | 12.9 | 0.00 | 0.00 | 0.00 | 89 | 1007.6 |
| 20260506034603 | 23 | 157 | 6.4 | 16.1 | 0.00 | 0.00 | 0.00 | 88 | 1007.7 |
| 20260506033052 | 23 | 152 | 8.0 | 12.9 | 0.00 | 0.00 | 0.00 | 88 | 1007.3 |
| 20260506031551 | 23 | 154 | 8.0 | 14.5 | 0.00 | 0.00 | 0.00 | 87 | 1007.0 |
| 20260506030050 | 23 | 157 | 6.4 | 12.9 | 0.00 | 0.00 | 0.00 | 87 | 1006.7 |
| 20260506024606 | 24 | 135 | 6.4 | 14.5 | 0.00 | 0.00 | 0.00 | 87 | 1006.7 |
| 20260506023049 | 24 | 145 | 8.0 | 14.5 | 0.00 | 0.00 | 0.00 | 86 | 1006.3 |
| 20260506021552 | 25 | 145 | 8.0 | 12.9 | 0.00 | 0.00 | 0.00 | 85 | 1006.1 |
| 20260506020048 | 25 | 157 | 8.0 | 12.9 | 0.00 | 0.00 | 0.00 | 85 | 1005.9 |
| 20260506014550 | 25 | 142 | 4.8 | 12.9 | 0.00 | 0.00 | 0.00 | 84 | 1005.9 |
| 20260506013101 | 25 | 150 | 4.8 | 12.9 | 0.00 | 0.00 | 0.00 | 83 | 1005.9 |
| 20260506011556 | 26 | 151 | 3.2 | 8.0 | 0.00 | 0.00 | 0.00 | 82 | 1005.8 |
| 20260506010046 | 26 | 135 | 4.8 | 12.9 | 0.00 | 0.00 | 0.00 | 81 | 1005.7 |
| 20260506004544 | 26 | 134 | 4.8 | 9.7 | 0.00 | 0.00 | 0.00 | 80 | 1005.4 |
| 20260506003046 | 26 | 147 | 3.2 | 6.4 | 0.00 | 0.00 | 0.00 | 79 | 1005.4 |
| 20260506001546 | 26 | 171 | 4.8 | 11.3 | 0.00 | 0.00 | 0.00 | 78 | 1005.1 |
| 20260506000044 | 27 | 171 | 3.2 | 9.7 | 0.00 | 0.00 | 0.00 | 77 | 1005.2 |
| 20260505234543 | 27 | 174 | 6.4 | 14.5 | 0.00 | 0.00 | 0.00 | 76 | 1005.0 |
| 20260505233042 | 27 | 159 | 4.8 | 12.9 | 0.00 | 0.00 | 0.00 | 76 | 1005.0 |
| 20260505231542 | 27 | 177 | 8.0 | 16.1 | 0.00 | 0.00 | 0.00 | 75 | 1004.9 |
| 20260505230054 | 27 | 152 | 9.7 | 17.7 | 0.00 | 0.00 | 0.00 | 75 | 1004.9 |
| 20260505224541 | 27 | 164 | 6.4 | 20.9 | 0.00 | 0.00 | 0.00 | 75 | 1004.8 |
| 20260505223052 | 27 | 152 | 8.0 | 19.3 | 0.00 | 0.00 | 0.00 | 73 | 1005.1 |
| 20260505221537 | 27 | 166 | 11.3 | 22.5 | 0.00 | 0.00 | 0.00 | 75 | 1005.0 |
| 20260505220038 | 27 | 145 | 11.3 | 20.9 | 0.00 | 0.00 | 0.00 | 75 | 1005.2 |
| 20260505214532 | 27 | 162 | 9.7 | 19.3 | 0.00 | 0.00 | 0.00 | 75 | 1005.6 |
| 20260505213048 | 27 | 183 | 12.9 | 22.5 | 0.00 | 0.00 | 0.00 | 75 | 1005.4 |
| 20260505211530 | 27 | 177 | 12.9 | 24.1 | 0.00 | 0.00 | 0.00 | 75 | 1005.7 |
| 20260505210028 | 27 | 177 | 12.9 | 25.7 | 0.00 | 0.00 | 0.00 | 75 | 1005.8 |
| 20260505204523 | 27 | 150 | 9.7 | 19.3 | 0.00 | 0.00 | 0.00 | 76 | 1006.2 |
| 20260505203030 | 26 | 169 | 12.9 | 25.7 | 0.00 | 0.00 | 0.00 | 76 | 1006.6 |
| 20260505201520 | 26 | 163 | 12.9 | 22.5 | 0.00 | 0.00 | 0.00 | 80 | 1006.6 |
| 20260505200027 | 26 | 157 | 11.3 | 24.1 | 0.00 | 0.00 | 0.00 | 78 | 1006.8 |
| 20260505194513 | 26 | 183 | 14.5 | 24.1 | 0.00 | 0.00 | 0.00 | 78 | 1007.3 |
| 20260505193012 | 26 | 169 | 11.3 | 20.9 | 0.00 | 0.00 | 0.00 | 79 | 1007.3 |
| 20260505191511 | 25 | 165 | 12.9 | 20.9 | 0.00 | 0.00 | 0.00 | 79 | 1007.4 |
| 20260505190008 | 25 | 206 | 12.9 | 22.5 | 0.00 | 0.00 | 0.00 | 81 | 1007.6 |
| 20260505184505 | 25 | 196 | 12.9 | 22.5 | 0.00 | 0.00 | 0.00 | 81 | 1007.8 |
| 20260505183004 | 25 | 231 | 16.1 | 25.7 | 0.00 | 0.00 | 0.00 | 82 | 1007.8 |
| 20260505181601 | 24 | 201 | 11.3 | 24.1 | 0.00 | 0.00 | 0.00 | 84 | 1008.1 |
| 20260505180058 | 24 | 203 | 14.5 | 20.9 | 0.00 | 0.00 | 0.00 | 84 | 1008.1 |
| 20260505174558 | 23 | 169 | 12.9 | 22.5 | 0.00 | 0.00 | 0.00 | 85 | 1008.2 |
| 20260505173053 | 23 | 181 | 11.3 | 24.1 | 0.00 | 0.00 | 0.00 | 86 | 1008.3 |
| 20260505171551 | 23 | 247 | 11.3 | 24.1 | 0.00 | 0.00 | 0.00 | 86 | 1008.4 |
| 20260505170046 | 22 | 202 | 11.3 | 22.5 | 0.00 | 0.00 | 0.00 | 88 | 1008.4 |
| 20260505164556 | 22 | 224 | 6.4 | 22.5 | 0.00 | 0.00 | 0.00 | 89 | 1008.3 |
| 20260505163038 | 22 | 162 | 9.7 | 22.5 | 0.00 | 0.00 | 0.00 | 89 | 1008.3 |
| 20260505161534 | 22 | 230 | 14.5 | 22.5 | 0.00 | 0.00 | 0.00 | 89 | 1008.5 |
| 20260505153044 | 21 | 183 | 14.5 | 27.4 | 0.00 | 0.00 | 0.00 | 90 | 1008.3 |
| 20260505151525 | 21 | 209 | 16.1 | 20.9 | 0.00 | 0.00 | 0.00 | 90 | 1008.2 |
| 20260505124513 | 21 | 164 | 12.9 | 22.5 | 0.00 | 0.00 | 0.00 | 90 | 1007.4 |
| 20260505123012 | 20 | 192 | 14.5 | 20.9 | 0.00 | 0.00 | 0.00 | 89 | 1007.2 |
| 20260505121511 | 20 | 207 | 14.5 | 24.1 | 0.00 | 0.00 | 0.00 | 89 | 1007.1 |
| 20260505120010 | 20 | 184 | 14.5 | 29.0 | 0.00 | 0.00 | 0.00 | 89 | 1007.0 |
| 20260505114510 | 20 | 191 | 12.9 | 24.1 | 0.00 | 0.00 | 0.00 | 89 | 1007.0 |
| 20260505113006 | 20 | 199 | 16.1 | 25.7 | 0.00 | 0.00 | 0.00 | 89 | 1006.9 |
| 20260505111506 | 20 | 204 | 14.5 | 25.7 | 0.00 | 0.00 | 0.00 | 89 | 1007.0 |
| 20260505101604 | 20 | 206 | 11.3 | 17.7 | 0.00 | 0.00 | 0.00 | 89 | 1007.5 |
| 20260505100100 | 20 | 198 | 12.9 | 24.1 | 0.00 | 0.00 | 0.00 | 89 | 1007.2 |
| 20260505094606 | 20 | 183 | 11.3 | 20.9 | 0.00 | 0.00 | 0.00 | 90 | 1007.5 |
| 20260505093056 | 20 | 161 | 9.7 | 19.3 | 0.00 | 0.00 | 0.00 | 89 | 1007.2 |
| 20260505091559 | 20 | 166 | 8.0 | 17.7 | 0.00 | 0.00 | 0.00 | 89 | 1007.6 |
| 20260505090058 | 20 | 160 | 8.0 | 20.9 | 0.00 | 0.00 | 0.00 | 89 | 1007.5 |
| 20260505084551 | 20 | 235 | 12.9 | 22.5 | 0.00 | 0.00 | 0.00 | 89 | 1007.7 |
| 20260505083050 | 20 | 204 | 14.5 | 30.6 | 0.00 | 0.00 | 0.00 | 89 | 1007.7 |
| 20260505081557 | 20 | 174 | 14.5 | 19.3 | 0.00 | 0.00 | 0.00 | 89 | 1007.9 |
| 20260505080047 | 20 | 204 | 14.5 | 27.4 | 0.00 | 0.00 | 0.00 | 89 | 1008.1 |
| 20260505074559 | 20 | 181 | 12.9 | 22.5 | 0.00 | 0.00 | 0.00 | 89 | 1008.2 |
| 20260505073036 | 20 | 176 | 11.3 | 22.5 | 0.00 | 0.00 | 0.00 | 89 | 1008.3 |
| 20260505071535 | 20 | 187 | 16.1 | 25.7 | 0.00 | 0.00 | 0.00 | 88 | 1008.5 |
| 20260505070032 | 20 | 195 | 16.1 | 22.5 | 0.00 | 0.00 | 0.00 | 88 | 1008.6 |
| 20260505064533 | 20 | 163 | 11.3 | 32.2 | 0.00 | 0.00 | 0.00 | 88 | 1008.8 |
| 20260505063035 | 20 | 169 | 12.9 | 24.1 | 0.00 | 0.00 | 0.00 | 88 | 1008.9 |
| 20260505061532 | 20 | 188 | 12.9 | 22.5 | 0.00 | 0.00 | 0.00 | 88 | 1009.2 |
| 20260505060028 | 20 | 162 | 11.3 | 20.9 | 0.00 | 0.00 | 0.00 | 88 | 1009.0 |
| 20260505054528 | 20 | 173 | 14.5 | 22.5 | 0.00 | 0.00 | 0.00 | 88 | 1008.9 |
| 20260505053023 | 20 | 143 | 12.9 | 25.7 | 0.00 | 0.00 | 0.00 | 87 | 1009.0 |
| 20260505051520 | 20 | 152 | 16.1 | 29.0 | 0.00 | 0.00 | 0.00 | 87 | 1008.7 |